Regional Weather Roundup
Issued by NWS New Orleans/Baton Rouge, LA

Home | Current Version | Previous Version | Text Only | Print | Product List | Glossary On
Versions: 1 2 3 4 5 6 7 8 9 10 11 12 13 14 15 16 17 18 19 20 21 22 23 24 25 26 27
000
ASUS44 KLIX 161113
RWRLIX
NEW ORLEANS REGIONAL WEATHER ROUNDUP
NATIONAL WEATHER SERVICE NEW ORLEANS LA
500 AM CST MON JAN 16 2017

NOTE: "FAIR" INDICATES FEW OR NO CLOUDS BELOW 12,000 FEET WITH NO
      SIGNIFICANT WEATHER AND/OR OBSTRUCTIONS TO VISIBILITY.
      SKY/WX - SKY CONDITION AND SIGNIFICANT WEATHER.
      TMP - AIR TEMPERATURE.     DP    - DEWPOINT TEMPERATURE.
      RH  - RELATIVE HUMIDITY.   PRES  - PRESSURE.
      HI  - HEAT INDEX.          WCI   - WIND CHILL INDEX.

*  THESE STATIONS ARE NOT NWS OR FAA STATIONS AND ARE NOT UNDER
   NWS QUALITY CONTROL.

LAZ038-040-048-061>063-065>067-069-161200-
SOUTHEAST LOUISIANA

CITY           SKY/WX    TMP DP  RH WIND       PRES   REMARKS
N.O. AUDUBON   NOT AVBL
N.O. INTL ARPT PTCLDY    64  63  96 SE8       30.10F
N.O. LAKEFRONT PTCLDY    64  64 100 SE9       30.11F
N.O. DOWNTOWN*   N/A     67  64  90 VRB6      30.11F
RESERVE*       FOG       64  62  94 E6        30.09F VSB 1/2
SLIDELL        CLOUDY    66  64  93 S6        30.11F
BATON ROUGE    CLOUDY    65  65 100 SE14      30.06S FOG
BOOTHVILLE     CLEAR     58  58 100 E5        30.13S
BELLE CHASSE   CLEAR     62  62 100 E6        30.10F
BOGALUSA*      PTSUNNY   65  62  90 CALM      30.13F
GALLIANO*      SUNNY     65  62  92 E3        30.10F
NEW ROADS*     CLOUDY    64  63  98 SE10      30.04F FOG
GONZALES*      CLOUDY    65  65 100 SE8       30.06F FOG
HAMMOND*       CLOUDY    64  63  94 SE9       30.09F
HOUMA*         HVY RAIN  60  60 100 E3        30.09F VSB 1/4
PORT FOURCHON* SUNNY     66  64  94 E7        30.10S

$$

MSZ070-080>082-161200-
SOUTHERN MISSISSIPPI

CITY           SKY/WX    TMP DP  RH WIND       PRES   REMARKS
MCCOMB         CLOUDY    66  63  90 S13       30.08F
GULFPORT       MOCLDY    64  61  90 SE6       30.13F
BILOXI         PTCLDY    66  64  94 SE6       30.13F
PASCAGOULA     PTCLDY    64  60  87 SE6       30.15S

$$

COASTAL OBSERVATIONS
LAKE AND NEARSHORE STATIONS

STATION/POSITION TIME  TEMP    WIND        PRES    WAVE
                       AIR SEA DIR/SP/G            HT/PER
                 (UTC) (F)     (DEG/KT/KT) (MB)    (FT/S)
PASCAGOULA       1048   67     110/ 11/ 13 1020.2
WAVELAND YACHT   1048   65 60  130/  8/ 10 1020.3
GRAND ISLE       1048   64 64  120/  4/  6 1019.7
SOUTHWEST PASS   1048          130/  8/ 10   N/A
NEW CANAL        1048      57  130/  1/  3 1018.5
SHELL BEACH      1048      63  130/  6/  7 1020.0

OFFSHORE STATIONS

STATION/POSITION TIME  TEMP    WIND        PRES    WAVE
                       AIR SEA DIR/SP/G            HT/PER
                 (UTC) (F)     (DEG/KT/KT) (MB)    (FT/S)

$$





USA.gov is the U.S. government's official web portal to all federal, state and local government web resources and services.